Regional Weather Roundup
Issued by NWS

Home | Current Version | Previous Version | Text Only | Print | Product List | Glossary On
Versions: 1 2 3 4 5 6 7 8 9 10 11 12 13 14 15 16 17 18 19 20 21 22 23 24 25 26 27 28 29 30 31 32 33 34 35 36 37 38 39 40 41 42 43 44 45 46 47 48 49 50
000
ASUS44 KJAN 232010
RWRMS

MISSISSIPPI HOURLY WEATHER ROUNDUP
NATIONAL WEATHER SERVICE JACKSON MS
300 PM CDT WED AUG 23 2017

NOTE: "FAIR: INDICATES FEW OR NO CLOUDS BELOW 12,000 FEET WITH NO
SIGNIFICANT WEATHER AND/OR OBSTRUCTIONS TO VISIBILITY.

MSZ001>002-007>008-010>013-018>021-025>028-034>036-232100-
NORTHWEST MISSISSIPPI

CITY           SKY/WX    TMP DP  RH WIND       PRES   REMARKS
BATESVILLE     FAIR      85  71  62 CALM      29.99F HX  90
CLARKSDALE       N/A     86  73  66 NE9       29.99F HX  93
CLEVELAND      CLOUDY    88  73  61 NE10      29.95F HX  95
GREENWOOD      MOSUNNY   91  73  55 NE7       29.95F HX  99
GREENVILLE     MOSUNNY   89  72  56 NE7       29.94F HX  96
OLIVE BRANCH   PTSUNNY  N/A N/A N/A NE7       29.99F
OXFORD         FAIR      82  70  65 N8        30.01F
TUNICA           N/A     81  72  74 NE3       30.00F
WINONA         MOCLDY    87  73  64 NE6       29.96F HX  94
$$

MSZ003>006-009-014>017-022>024-029>033-037>039-232100-
NORTHEAST MISSISSIPPI

CITY           SKY/WX    TMP DP  RH WIND       PRES   REMARKS
COLUMBUS AFB   PTSUNNY   86  73  66 N6        29.95F HX  93
STARKVILLE     FAIR      86  70  58 N7        29.97F HX  90
TUPELO         MOSUNNY   85  66  53 N8        29.97F
$$

MSZ040-058-232100-
CENTRAL MISSISSIPPI

CITY           SKY/WX    TMP DP  RH WIND       PRES   REMARKS
JACKSON INTL   MOSUNNY   92  74  55 N10       29.93F HX 101
JACKSON HAWKNS PTSUNNY   88  76  67 VRB5      29.93F HX  99
MADISON        FAIR      90  73  58 NE3       29.93F HX  98
MERIDIAN KEY   MOSUNNY   93  76  57 N10       29.92F HX 105
MERIDIAN NAS   NOT AVBL
RAYMOND          N/A     91  77  62 VRB6G12   29.92F HX 105
VICKSBURG VKS  PTCLDY    90  75  62 VRB5      29.90F HX 100
$$

MSZ059>079-232100-
SOUTH MISSISSIPPI

CITY           SKY/WX    TMP DP  RH WIND       PRES   REMARKS
COLUMBIA       FAIR      91 N/A N/A CALM      29.94F
HATTIESBURG    MOSUNNY   92  75  57 CALM      29.91F HX 103
LAUREL         MOCLDY    91  71  51 N6        29.92F HX  98
MCCOMB         MOSUNNY   90  71  53 NE3       29.93F HX  96
NATCHEZ        MOSUNNY   91  75  59 E6        29.93F HX 101
PINE BELT      MOSUNNY   92  75  57 VRB6      29.92F HX 103
$$

MSZ080>082-232100-
COASTAL MISSISSIPPI

CITY           SKY/WX    TMP DP  RH WIND       PRES   REMARKS
BAY ST LOUIS   MOSUNNY   88  77  70 CALM      29.90F HX 100
BILOXI         CLOUDY    88  76  69 S9        29.90F HX  99
PASCAGOULA     PTSUNNY   91  74  57 CALM      29.90F HX 100
GULFPORT       CLOUDY    89  76  65 S8        29.90F HX 100
$$

LAZ007>009-015>016-023>026-232100-
NORTHEAST LOUISIANA

CITY           SKY/WX    TMP DP  RH WIND       PRES   REMARKS
BASTROP        FAIR      92  73  53 NW5       29.93F HX 101
TALLULAH/VBURG SUNNY     93  76  57 VRB6      29.91F HX 105
VIDALIA          N/A    N/A N/A N/A MISG      29.91F
$$



USA.gov is the U.S. government's official web portal to all federal, state and local government web resources and services.